Location: Juzet
(42.9779°N, 0.7597°E)
Time: 02:50:42
(UTC+00:00)

Meteor 1-20 Rocket - Pass Details

Date: 14 July 2020
Orbit: 820 x 891 km, 81.2° (Epoch: 04 August)

Event Time Altitude Azimuth Distance (km) Brightness Sun altitude
Exits shadow 00:58:23 61° 199° (SSW) 954 4.1 -24.1°
Maximum altitude 00:59:24 85° 279° (W) 856 4.1 -24.1°
Drops below altitude 10° 01:05:06 10° 9° (N) 2,506 7.7 -23.8°
Sets 01:07:34 0° 10° (N) 3,458 8.8 -23.7°
